User: anonymous   Login
Location: Altleiningen
(49.5078°N, 8.0741°E)
Time: 12:37:41
(UTC+00:00)
Language:

Cosmos 1844 Rocket - Orbit

View from above orbital plane
View from above orbital plane
View from above satellite
View from above satellite

Ground track
Ground track

The orbit data is extracted from the following two-line orbital elements,

1 17974U 87041B   21131.51158653 -.00000076  00000-0 -13769-4 0  9995
2 17974  71.0046 148.8446 0013345   9.1761 101.5600 14.17274648758257
Epoch (UTC): 11 May 2021 12:16:41
Eccentricity: 0.0013345
inclination: 71.0046°
perigee height: 825 km
apogee height: 844 km
right ascension of ascending node: 148.8446°
argument of perigee: 9.1761°
revolutions per day: 14.17274648
mean anomaly at epoch: 101.5600°
orbit number at epoch: 75825

The dashed part of the orbit path shows where the satellite is in the earth's shadow,  

DLR